Regional Weather Roundup
Issued by NWS

Home | Current Version | Previous Version | Text Only | Print | Product List | Glossary On
Versions: 1 2 3 4 5 6 7 8 9 10 11 12 13 14 15 16 17 18 19 20 21 22 23 24 25 26 27 28 29 30 31 32 33 34 35 36 37 38 39 40 41 42 43 44 45 46 47 48 49 50
000
ASUS43 KOAX 010702
RWRNE

WEATHER ROUNDUP FOR NEBRASKA
NATIONAL WEATHER SERVICE OMAHA NE
200 AM CDT SAT AUG 01 2015

NOTES: SATELLITE DATA IS BEING USED TO AUGMENT CLOUD COVER ABOVE
       12000 FEET.
       "FAIR" INDICATES FEW OR NO CLOUDS BELOW 12,000 FEET WITH NO
       SIGNIFICANT WEATHER AND/OR OBSTRUCTIONS TO VISIBILITY.

  * THESE STATIONS DO NOT REPORT WEATHER SUCH AS RAIN...SNOW OR FOG.

NEZ001>004-019>022-054>056-010800-
NEBRASKA PANHANDLE

CITY           SKY/WX    TMP DP  RH WIND       PRES   REMARKS
SCOTTSBLUFF    CLEAR     65  56  72 E8        30.14F
ALLIANCE       CLEAR     60  55  83 SE8       30.14F
CHADRON        CLEAR     65  54  67 NE3       30.10F
KIMBALL        CLEAR     60  51  70 S5        30.20F
SIDNEY         CLEAR     63  55  75 S7        30.19F
$$

NEZ057>060-069>072-079>082-010800-
SOUTHWEST NEBRASKA

CITY           SKY/WX    TMP DP  RH WIND       PRES   REMARKS
NORTH PLATTE   CLEAR     63  60  90 E7        30.12F
IMPERIAL       CLEAR     71  58  63 SW6       30.14F
LEXINGTON      PTCLDY    67  62  83 W5        30.13S
MCCOOK         PTCLDY    72  62  71 E8        30.13F
$$

NEZ005>010-023>029-035>040-094-010800-
NORTH CENTRAL NEBRASKA

CITY           SKY/WX    TMP DP  RH WIND       PRES   REMARKS
VALENTINE      PTCLDY    68  60  75 E5        30.12F
AINSWORTH      CLEAR     66  63  88 SE7       30.14F
BROKEN BOW     PTCLDY    66  59  78 VRB3      30.12F
O`NEILL        MOCLDY    69  65  87 CALM      30.13F
ORD            CLEAR     64  62  93 N3        30.10F
$$

NEZ041-046>049-061>064-073>077-083>087-010800-
SOUTH CENTRAL NEBRASKA

CITY           SKY/WX    TMP DP  RH WIND       PRES   REMARKS
GRAND ISLAND   MOCLDY    68  63  84 NE8       30.11R
AURORA         CLEAR     64  63  96 E3        30.11S
HASTINGS       PTCLDY    72  60  66 S3        30.09F
KEARNEY *      CLEAR     68  59  73 S6        30.11S
$$

NEZ011>018-030>034-042>045-010800-
NORTHEAST NEBRASKA

CITY           SKY/WX    TMP DP  RH WIND       PRES   REMARKS
NORFOLK        CLEAR     61  59  93 SW3       30.09F
ALBION         MOCLDY    61  59  93 CALM      30.12R
BLAIR          CLEAR     70  68  92 CALM      30.08S
COLUMBUS *     CLEAR     59  54  82 NW3       30.11S
TEKAMAH        CLEAR     66  64  93 N3        30.07F
$$

NEZ050>053-065>068-078-088>093-010800-
SOUTHEAST NEBRASKA

CITY           SKY/WX    TMP DP  RH WIND       PRES   REMARKS
LINCOLN        CLEAR     64  62  93 N7        30.09S
OMAHA EPPLEY   PTCLDY    73  68  84 S5        30.07F
BEATRICE       CLEAR     68  65  90 CALM      30.09S
FALLS CITY     CLEAR     72  69  90 SW3       30.05F
NEBRASKA CITY  CLEAR     67  66  95 SW5       30.07F
$$

NEZ044-045-051>053-067-010800-
OMAHA AREA

CITY           SKY/WX    TMP DP  RH WIND       PRES   REMARKS
OMAHA EPPLEY   PTCLDY    73  68  84 S5        30.07F
BLAIR          CLEAR     70  68  92 CALM      30.08S
WAHOO          FAIR      65  63  93 N3        30.08F
$$



USA.gov is the U.S. government's official web portal to all federal, state and local government web resources and services.